Terminal Aerodrome Forecast
Issued by NWS Melbourne, FL

Home | Current Version | Previous Version | Text Only | Print | Product List | Glossary On
Versions: 1 2 3 4 5 6 7 8 9 10 11 12 13 14 15 16 17 18 19 20 21 22
000
FTUS42 KMLB 262300
TAFVRB
TAF
KVRB 262322Z 2700/2724 31006KT P6SM BKN250
     FM270300 31006KT P6SM SCT250
     FM271600 31013G20KT P6SM FEW035=

USA.gov is the U.S. government's official web portal to all federal, state and local government web resources and services.